TimeCDT,TemperatureF,Dew PointF,Humidity,Sea Level PressureIn,VisibilityMPH,Wind Direction,Wind SpeedMPH,Gust SpeedMPH,PrecipitationIn,Events,Conditions,WindDirDegrees,DateUTC
12:52 AM,32.0,19.0,59,30.35,10.0,NW,9.2,-,N/A,,Clear,310,2012-10-06 05:52:00
1:52 AM,33.1,19.0,56,30.35,10.0,NW,10.4,-,N/A,,Clear,320,2012-10-06 06:52:00
2:52 AM,28.9,19.0,67,30.35,10.0,WNW,5.8,-,N/A,,Clear,300,2012-10-06 07:52:00
3:52 AM,27.0,18.0,69,30.35,10.0,WNW,5.8,-,N/A,,Clear,290,2012-10-06 08:52:00
4:52 AM,26.1,18.0,71,30.35,10.0,NW,6.9,-,N/A,,Clear,310,2012-10-06 09:52:00
5:52 AM,27.0,19.0,72,30.38,10.0,WNW,10.4,-,N/A,,Clear,290,2012-10-06 10:52:00
6:52 AM,26.1,19.0,75,30.39,10.0,WNW,8.1,-,N/A,,Clear,300,2012-10-06 11:52:00
7:52 AM,28.0,21.0,75,30.39,10.0,NW,10.4,-,N/A,,Clear,320,2012-10-06 12:52:00
8:52 AM,30.9,21.0,67,30.39,10.0,NNW,15.0,20.7,N/A,,Clear,330,2012-10-06 13:52:00
9:52 AM,35.1,23.0,61,30.39,10.0,NNW,13.8,-,N/A,,Clear,330,2012-10-06 14:52:00
10:52 AM,39.0,25.0,57,30.41,10.0,NNW,12.7,-,N/A,,Clear,330,2012-10-06 15:52:00
11:52 AM,42.1,24.1,49,30.39,10.0,NNW,16.1,20.7,N/A,,Mostly Cloudy,340,2012-10-06 16:52:00
12:52 PM,45.0,25.0,46,30.38,10.0,North,18.4,25.3,N/A,,Mostly Cloudy,350,2012-10-06 17:52:00
1:52 PM,45.0,23.0,42,30.37,10.0,NNW,20.7,-,N/A,,Overcast,330,2012-10-06 18:52:00
2:52 PM,45.0,24.1,44,30.35,10.0,NNW,12.7,19.6,N/A,,Overcast,340,2012-10-06 19:52:00
3:52 PM,45.0,23.0,42,30.34,10.0,NW,12.7,23.0,N/A,,Overcast,320,2012-10-06 20:52:00
4:52 PM,46.9,21.9,37,30.33,10.0,NW,12.7,-,N/A,,Scattered Clouds,310,2012-10-06 21:52:00
5:52 PM,46.0,21.0,37,30.32,10.0,NW,12.7,-,N/A,,Mostly Cloudy,310,2012-10-06 22:52:00
6:52 PM,41.0,19.9,43,30.33,10.0,WNW,5.8,-,N/A,,Clear,300,2012-10-06 23:52:00
7:52 PM,36.0,19.9,52,30.34,10.0,West,5.8,-,N/A,,Clear,280,2012-10-07 00:52:00
8:52 PM,35.1,19.9,54,30.34,10.0,West,6.9,-,N/A,,Scattered Clouds,280,2012-10-07 01:52:00
9:52 PM,34.0,19.9,56,30.34,10.0,West,5.8,-,N/A,,Mostly Cloudy,280,2012-10-07 02:52:00
10:52 PM,28.0,18.0,66,30.35,10.0,West,4.6,-,N/A,,Clear,280,2012-10-07 03:52:00
11:52 PM,28.0,18.0,66,30.34,10.0,NW,3.5,-,N/A,,Clear,310,2012-10-07 04:52:00